[[{"header":{"parameterUnit":"m.s-1","parameterCategory":2,"la1":30.2991,"la2":30.254,"lo1":-89.0895,"lo2":-89.0444,"dy":0.0017,"dx":0.0017,"nx":28,"ny":28,"refTime":"2024-04-15T21:00:00:Z","depth":"0","parameterNumber":2,"parameterNumberName":"U-component_of_CURRENTS"},"data":[0,0,0,0,0,0,0,0,0,0,0,0,0,0,0,0,0,0,0,0,0,0,0,0,0,0,0,0,0,0,0,0,0,0,0,0,0,0,0,0,0,0,0,0,0,0,0,0,0,0,0,0,0,0,0,0,0,0,0.2467,0.2468,0,0.2521,0.2521,0.2521,0.2524,0.2523,0.2523,0.2523,0.2519,0.2519,0.2519,0,0,0,0,0,0,0,0,0,0,0,0,0,0.2368,0.2369,0.2467,0.2468,0.2469,0.2521,0.2521,0.2521,0.2524,0.2523,0.2523,0.2523,0.2519,0.2519,0.2519,0,0,0,0,0,0,0,0,0,0,0,0,0,0.2411,0.237,0.2467,0.2479,0.2481,0.2521,0.2521,0.2521,0.2524,0.2523,0.2523,0.2523,0.2518,0.2519,0.2519,0.2528,0,0,0.2519,0.252,0,0,0,0,0,0,0,0,0.2409,0.2414,0.2477,0.2479,0.2481,0.2519,0.2485,0.2522,0.2524,0.2504,0.2523,0.2522,0.2516,0.2516,0.2523,0.2528,0.2528,0.252,0.252,0.252,0.252,0,0,0,0,0,0,0,0.2406,0.2412,0.2484,0.2478,0.2481,0.2483,0.2488,0.2492,0.2507,0.2505,0.2507,0.2519,0.2516,0.2522,0.2522,0.2528,0.2519,0.252,0.252,0.252,0.2588,0.2589,0,0,0,0,0,0,0.2408,0.241,0.2483,0.2486,0.2448,0.2485,0.2491,0.2504,0.2509,0.2511,0.2519,0.2519,0.2522,0.2522,0.2522,0.2569,0.252,0.252,0.252,0.2586,0.2588,0.259,0,0,0,0,0,0,0.2406,0.2414,0.2481,0.2452,0.2461,0.2488,0.2502,0.2505,0.2515,0.2521,0.252,0.2527,0.2522,0.2522,0.2544,0.2567,0.252,0.252,0.2584,0.2587,0.2589,0.2638,0,0,0,0,0,0,0.2402,0.2413,0.242,0.2452,0.2463,0.2507,0.2503,0.2507,0.2525,0.2525,0.2527,0.2526,0.2522,0.2544,0.2544,0.2566,0.252,0.2582,0.2585,0.2588,0.2635,0.2642,0.2649,0,0,0,0,0,0.2399,0.2411,0.242,0.2429,0.2473,0.2508,0.2513,0.2528,0.2526,0.2534,0.2546,0.2526,0.2564,0.2545,0.2545,0.2568,0.258,0.2584,0.2588,0.2632,0.2641,0.2649,0,0,0,0,0,0,0.2368,0.2414,0.2424,0.2449,0.2479,0.251,0.252,0.2532,0.2548,0.2547,0.2545,0.2546,0.2575,0.2568,0.2548,0.26,0.257,0.2574,0.2603,0.2612,0.2619,0.262,0.2521,0,0,0,0,0,0.2367,0.2388,0.2431,0.2449,0.2465,0.2493,0.2509,0.2523,0.2544,0.255,0.2558,0.257,0.2591,0.2598,0.261,0.2634,0.2653,0.2651,0.2658,0.2664,0.2667,0.272,0.2732,0.2602,0.2602,0.2602,0,0,0.236,0.2388,0.24,0.2444,0.2466,0.2501,0.25,0.2528,0.2558,0.2547,0.2581,0.2592,0.2604,0.2638,0.265,0.2634,0.2717,0.2669,0.2674,0.2673,0.2725,0.2737,0.2749,0.2605,0.2604,0.2604,0,0,0.2361,0.2382,0.2403,0.2434,0.2477,0.2502,0.2513,0.2552,0.2566,0.2604,0.2612,0.2641,0.2661,0.2685,0.2697,0.275,0.2754,0.2753,0.2788,0.2839,0.285,0.286,0.2926,0.2941,0.2756,0.2756,0.2756,0,0.2351,0.2388,0.2413,0.2446,0.2478,0.2505,0.2541,0.2566,0.2608,0.2628,0.2618,0.2682,0.2687,0.2744,0.2766,0.2765,0.2801,0.2752,0.2848,0.2858,0.2867,0.2932,0.2948,0.2759,0.2759,0.2758,0.2758,0,0.2374,0.2406,0.2421,0.2477,0.2511,0.2544,0.2592,0.2621,0.2643,0.2671,0.2724,0.2742,0.2782,0.2792,0.2794,0.2867,0.2875,0.2852,0.2824,0.2883,0.2949,0.2964,0.2763,0.2762,0.2761,0.276,0,0,0.2345,0.2424,0.2427,0.2464,0.2533,0.2564,0.2618,0.2678,0.2719,0.2749,0.2804,0.2844,0.2854,0.2871,0.2882,0.2923,0.3025,0.2918,0.2919,0.298,0.3162,0.3134,0.3149,0.302,0.3022,0.3024,0.319,0,0.2356,0.2419,0.246,0.2525,0.2567,0.2617,0.2669,0.2724,0.2768,0.2826,0.2853,0.2909,0.2886,0.2918,0.2955,0.3013,0.3065,0.2983,0.3098,0.3102,0.3067,0.3165,0.303,0.3163,0.3206,0.3208,0.321,0,0.2363,0.2411,0.2473,0.2564,0.2587,0.263,0.2722,0.2775,0.2858,0.289,0.2943,0.2974,0.3054,0.3015,0.3139,0.3092,0.3133,0.3164,0.3171,0.3135,0.3103,0.3107,0.319,0.3122,0.3234,0.3232,0.3231,0,0.2331,0.2418,0.2468,0.2499,0.2604,0.2641,0.2702,0.279,0.2838,0.2943,0.2993,0.3073,0.3134,0.3191,0.326,0.3215,0.3393,0.3337,0.3353,0.3353,0.3253,0.3239,0.3275,0.3422,0.3422,0.3422,0.3421,0,0.2329,0.237,0.2456,0.2488,0.2549,0.2633,0.2705,0.2774,0.2873,0.2932,0.3026,0.3094,0.3181,0.3282,0.3315,0.3404,0.3446,0.3388,0.34,0.3269,0.3255,0.3201,0.3164,0.3428,0.3426,0.3425,0.3424,0,0.2285,0.2342,0.2402,0.2505,0.2534,0.2579,0.269,0.2739,0.2857,0.2943,0.2984,0.3142,0.329,0.3384,0.3509,0.3489,0.3476,0.358,0.3432,0.3422,0.3326,0.3296,0.3232,0.3132,0.3621,0.3621,0.3622,0,0.2271,0.2297,0.2387,0.2411,0.2456,0.2531,0.2574,0.27,0.2756,0.2957,0.2993,0.3192,0.3287,0.3497,0.3542,0.3637,0.3519,0.3541,0.3411,0.3332,0.3309,0.3165,0.3073,0.3319,0.3317,0.3315,0.3314,0,0.224,0.2263,0.2304,0.2356,0.2398,0.2444,0.2526,0.2569,0.272,0.2816,0.2963,0.3072,0.3299,0.3358,0.3507,0.3525,0.3365,0.3506,0.3458,0.3113,0.2925,0.2829,0.3217,0.3298,0.33,0.3301,0.3302,0.3302,0.2196,0.2207,0.2252,0.2295,0.2327,0.2354,0.2366,0.2459,0.2542,0.2674,0.2848,0.2976,0.3149,0.3346,0.3355,0.3313,0.3279,0.3204,0.3195,0.3072,0.2898,0.3264,0.3325,0.3327,0.3328,0.3329,0.3331,0,0.2144,0.2169,0.2197,0.2229,0.222,0.2272,0.232,0.2314,0.2368,0.2529,0.2651,0.2846,0.2939,0.3063,0.3134,0.3028,0.2846,0.2945,0.2705,0.2644,0.3015,0.2923,0.2856,0.2856,0.2856,0.2856,0.2856,0.2857,0.2121,0.2125,0.2145,0.2118,0.2128,0.2079,0.2084,0.2093,0.2168,0.2282,0.2397,0.2546,0.2815,0.2973,0.2931,0.2844,0.2611,0.2485,0.2486,0.2756,0.2778,0.2799,0.2703,0.2592,0.2591,0.1971,0.1966,0.1963]},{"header":{"parameterUnit":"m.s-1","parameterCategory":2,"la1":30.2991,"la2":30.254,"lo1":-89.0895,"lo2":-89.0444,"dy":0.0017,"dx":0.0017,"nx":28,"ny":28,"refTime":"2024-04-15T21:00:00:Z","depth":"0","parameterNumber":3,"parameterNumberName":"V-component_of_CURRENTS"},"data":[0,0,0,0,0,0,0,0,0,0,0,0,0,0,0,0,0,0,0,0,0,0,0,0,0,0,0,0,0,0,0,0,0,0,0,0,0,0,0,0,0,0,0,0,0,0,0,0,0,0,0,0,0,0,0,0,0,0,0.0064,0.0064,0,0.0014,0.0013,0.0012,-0.0025,-0.0025,-0.0025,-0.0025,-0.0108,-0.011,-0.0112,0,0,0,0,0,0,0,0,0,0,0,0,0,0.0097,0.0096,0.0064,0.0064,0.0063,0.0014,0.0013,0.0012,-0.0025,-0.0025,-0.0025,-0.0025,-0.0107,-0.011,-0.0112,0,0,0,0,0,0,0,0,0,0,0,0,0,0.0067,0.0096,0.0064,0.0039,0.0037,0.0014,0.0013,0.0012,-0.0024,-0.0025,-0.0025,-0.0026,-0.0107,-0.0109,-0.0112,-0.0124,0,0,-0.0121,-0.0123,0,0,0,0,0,0,0,0,0.0069,0.0066,0.0044,0.0041,0.0038,0.0001,-0.0006,-0.0035,-0.0024,-0.0002,-0.0025,-0.0026,-0.0074,-0.0079,-0.0089,-0.0127,-0.0131,-0.0122,-0.0124,-0.0125,-0.0126,0,0,0,0,0,0,0,0.0071,0.0068,0.0043,0.0043,0.004,0.002,0.0015,-0.0012,-0.0036,-0.0004,-0.0007,-0.0011,-0.0076,-0.0086,-0.0091,-0.0132,-0.0122,-0.0124,-0.0126,-0.0127,-0.0184,-0.0184,0,0,0,0,0,0,0.0081,0.007,0.0045,0.0042,0.0054,0.002,0.0015,0.0013,-0.0036,-0.0043,-0.0011,-0.0012,-0.0081,-0.0088,-0.0094,-0.0112,-0.0125,-0.0128,-0.0129,-0.0185,-0.0184,-0.0184,0,0,0,0,0,0,0.0082,0.008,0.0047,0.0055,0.005,0.002,0.0018,0.0012,0.0003,-0.004,-0.0048,-0.0014,-0.0081,-0.009,-0.0115,-0.0115,-0.0129,-0.0132,-0.0185,-0.0184,-0.0184,-0.0147,0,0,0,0,0,0,0.0083,0.008,0.0082,0.0056,0.005,0.004,0.0018,0.0011,0.0001,-0.0002,-0.0045,-0.0053,-0.0082,-0.011,-0.0118,-0.012,-0.0134,-0.0185,-0.0185,-0.0184,-0.0148,-0.0145,-0.0142,0,0,0,0,0,0.0085,0.0093,0.0083,0.0079,0.0054,0.0041,0.0036,0.0012,0.0001,0.0002,-0.0029,-0.0052,-0.0112,-0.0112,-0.0121,-0.0124,-0.0185,-0.0185,-0.0184,-0.0149,-0.0146,-0.0142,0,0,0,0,0,0,0.0109,0.0089,0.0077,0.0079,0.0064,0.0035,0.0034,0.0017,-0.0006,-0.0009,-0.0051,-0.0061,-0.0083,-0.0105,-0.0104,-0.0138,-0.0152,-0.0153,-0.0122,-0.0119,-0.0116,-0.0112,-0.0136,0,0,0,0,0,0.0116,0.0116,0.0093,0.0094,0.0089,0.0062,0.0054,0.004,0.0016,0.0005,-0.0026,-0.0058,-0.0087,-0.0104,-0.013,-0.0149,-0.0166,-0.0156,-0.0153,-0.015,-0.0153,-0.0182,-0.0182,-0.0182,-0.0182,-0.0182,0,0,0.0126,0.0115,0.0114,0.0099,0.0085,0.0083,0.0056,0.0051,0.0043,-0.0,-0.0019,-0.0048,-0.0089,-0.011,-0.0122,-0.0131,-0.0153,-0.015,-0.0147,-0.0151,-0.0181,-0.0181,-0.0182,-0.0182,-0.0182,-0.0182,0,0,0.0151,0.0137,0.0147,0.0137,0.0122,0.0103,0.0105,0.0079,0.0062,0.0044,0.0008,-0.0022,-0.006,-0.0095,-0.0117,-0.0113,-0.0136,-0.0116,-0.0102,-0.013,-0.0131,-0.0131,-0.0128,-0.0128,-0.0116,-0.0116,-0.0116,0,0.0165,0.0172,0.0148,0.0155,0.0149,0.0116,0.0124,0.0102,0.007,0.0057,0.0045,-0.0017,-0.0056,-0.0092,-0.0095,-0.0109,-0.0114,-0.0113,-0.0127,-0.0128,-0.0129,-0.0126,-0.0127,-0.0114,-0.0115,-0.0115,-0.0115,0,0.0197,0.02,0.0207,0.0201,0.019,0.0194,0.0161,0.0148,0.0124,0.0099,0.0065,0.0013,-0.002,-0.0042,-0.0072,-0.01,-0.0095,-0.0118,-0.0135,-0.0127,-0.0123,-0.0125,-0.0112,-0.0112,-0.0113,-0.0113,0,0,0.0238,0.0231,0.0234,0.0239,0.0215,0.0214,0.0197,0.0174,0.0176,0.0127,0.0125,0.0047,0.0026,-0.0,-0.0041,-0.0081,-0.0096,-0.0101,-0.0103,-0.0095,-0.0129,-0.0108,-0.0108,-0.0118,-0.0119,-0.0119,-0.0114,0,0.0272,0.0296,0.0277,0.0295,0.0304,0.0265,0.0259,0.0231,0.0205,0.0197,0.0126,0.0114,0.0041,0.0041,-0.0016,-0.0064,-0.0103,-0.0093,-0.0141,-0.0142,-0.0124,-0.0111,-0.0118,-0.0113,-0.0116,-0.0117,-0.0117,0,0.0312,0.0322,0.0349,0.0347,0.0348,0.0355,0.0343,0.0333,0.0299,0.0283,0.0242,0.0204,0.0146,0.009,-0.0012,0.0003,-0.0064,-0.0116,-0.0118,-0.0117,-0.0125,-0.0128,-0.0117,-0.0285,-0.012,-0.012,-0.012,0,0.0359,0.0371,0.0395,0.0395,0.0389,0.0397,0.0394,0.0367,0.0382,0.0355,0.0385,0.0287,0.0292,0.0167,0.0065,0.003,-0.0031,-0.0089,-0.0139,-0.0137,-0.0162,-0.0161,-0.0322,-0.0175,-0.0175,-0.0175,-0.0175,0,0.0402,0.0422,0.0427,0.0445,0.0486,0.0457,0.0503,0.0482,0.0492,0.055,0.045,0.0495,0.0312,0.026,0.0115,0.0011,0.0012,-0.0131,-0.0139,-0.0145,-0.0143,-0.0306,-0.0401,-0.0175,-0.0175,-0.0175,-0.0175,0,0.0451,0.045,0.0489,0.0503,0.0515,0.0549,0.0596,0.0631,0.0632,0.0713,0.0722,0.0673,0.0615,0.0438,0.0277,0.0122,-0.0102,-0.0055,-0.003,-0.0037,-0.0268,-0.0359,-0.0506,-0.0578,-0.0126,-0.0126,-0.0125,0,0.0476,0.0504,0.0549,0.0589,0.0604,0.0656,0.0699,0.0704,0.0764,0.0844,0.0904,0.0878,0.0895,0.067,0.0382,0.0144,-0.004,-0.0032,-0.013,-0.0277,-0.0386,-0.0452,-0.0509,-0.0139,-0.0138,-0.0138,-0.0138,0,0.0535,0.0556,0.0591,0.068,0.0737,0.0807,0.0881,0.0959,0.1004,0.1095,0.1225,0.1252,0.1042,0.0804,0.0461,0.0271,-0.0156,-0.0035,-0.0214,-0.0429,-0.0489,-0.0561,-0.0124,-0.0136,-0.0136,-0.0136,-0.0137,-0.0137,0.0588,0.0633,0.0695,0.0779,0.0853,0.0972,0.1065,0.1168,0.1312,0.1479,0.1479,0.1547,0.1159,0.0694,0.0418,-0.0118,-0.013,-0.031,-0.0408,-0.0461,-0.0546,-0.0081,-0.009,-0.009,-0.009,-0.009,-0.009,0,0.0666,0.0716,0.0794,0.0906,0.101,0.1031,0.1195,0.1311,0.1523,0.1653,0.1777,0.1614,0.1146,0.0642,-0.0073,-0.0442,-0.0595,-0.0644,-0.0779,-0.0821,-0.0432,-0.045,-0.0506,-0.0506,-0.0506,-0.0506,-0.0505,-0.0505,0.0713,0.0805,0.0846,0.1029,0.1114,0.1275,0.1386,0.1565,0.1694,0.1884,0.1908,0.1898,0.15,0.0232,-0.0637,-0.0838,-0.1087,-0.1136,-0.1254,-0.1038,-0.1016,-0.0995,-0.1036,-0.1214,-0.1215,-0.1611,-0.1615,-0.1618]}],[{"header":{"parameterUnit":"m.s-1","parameterCategory":2,"la1":30.2991,"la2":30.254,"lo1":-89.0895,"lo2":-89.0444,"dy":0.0017,"dx":0.0017,"nx":28,"ny":28,"refTime":"2024-04-15T21:00:00:Z","depth":"2","parameterNumber":2,"parameterNumberName":"U-component_of_CURRENTS"},"data":[0,0,0,0,0,0,0,0,0,0,0,0,0,0,0,0,0,0,0,0,0,0,0,0,0,0,0,0,0,0,0,0,0,0,0,0,0,0,0,0,0,0,0,0,0,0,0,0,0,0,0,0,0,0,0,0,0,0,0.2187,0.2188,0,0.2224,0.2224,0.2224,0.2226,0.2226,0.2226,0.2226,0.2245,0.2246,0.2246,0,0,0,0,0,0,0,0,0,0,0,0,0,0.2104,0.2105,0.2187,0.2188,0.2189,0.2224,0.2224,0.2224,0.2226,0.2226,0.2226,0.2226,0.2245,0.2245,0.2246,0,0,0,0,0,0,0,0,0,0,0,0,0,0.2136,0.2106,0.2187,0.2197,0.2198,0.2224,0.2224,0.2224,0.2226,0.2226,0.2226,0.2226,0.2245,0.2245,0.2246,0.2252,0,0,0.2249,0.2249,0,0,0,0,0,0,0,0,0.2135,0.2139,0.2195,0.2196,0.2198,0.2224,0.2202,0.2234,0.2226,0.2211,0.2226,0.2226,0.2239,0.224,0.2242,0.2253,0.2254,0.2249,0.2249,0.225,0.225,0,0,0,0,0,0,0,0.2132,0.2137,0.2197,0.2196,0.2198,0.2195,0.2199,0.2208,0.2221,0.2212,0.2214,0.2224,0.2239,0.2241,0.2242,0.2254,0.2249,0.2249,0.225,0.225,0.2314,0.2315,0,0,0,0,0,0,0.2137,0.2135,0.2196,0.2199,0.217,0.2197,0.2201,0.2212,0.2222,0.2224,0.2225,0.2225,0.2239,0.2241,0.2243,0.2329,0.225,0.225,0.2251,0.2313,0.2314,0.2316,0,0,0,0,0,0,0.2135,0.2142,0.2195,0.2171,0.2178,0.2199,0.2211,0.2213,0.2233,0.2232,0.2233,0.2244,0.2239,0.2242,0.227,0.2327,0.2251,0.2251,0.2312,0.2313,0.2315,0.2451,0,0,0,0,0,0,0.2133,0.2141,0.2158,0.2172,0.218,0.2224,0.2211,0.2214,0.224,0.2241,0.2249,0.225,0.224,0.2269,0.2271,0.2326,0.2252,0.231,0.2312,0.2314,0.2445,0.2457,0.2468,0,0,0,0,0,0.213,0.2149,0.2159,0.2167,0.22,0.2225,0.2229,0.224,0.2242,0.2256,0.2264,0.225,0.2284,0.2271,0.2272,0.233,0.2309,0.2312,0.2314,0.244,0.2455,0.2467,0,0,0,0,0,0,0.212,0.2152,0.2163,0.2191,0.2216,0.2228,0.2244,0.2254,0.2271,0.2274,0.2268,0.227,0.2309,0.2294,0.228,0.235,0.2294,0.2297,0.2388,0.2402,0.2413,0.2426,0.2253,0,0,0,0,0,0.2128,0.2152,0.218,0.2204,0.2218,0.2236,0.2251,0.2262,0.2277,0.2285,0.2291,0.2298,0.2319,0.2341,0.2337,0.2387,0.2377,0.2421,0.2432,0.2442,0.2451,0.2494,0.2512,0.2325,0.2325,0.2325,0,0,0.2123,0.2153,0.2161,0.2205,0.2221,0.225,0.2244,0.2274,0.2311,0.2284,0.233,0.233,0.2333,0.2382,0.2401,0.2386,0.2489,0.2446,0.2455,0.2458,0.2499,0.2518,0.2534,0.2326,0.2326,0.2326,0,0,0.2132,0.216,0.2182,0.2206,0.2249,0.227,0.2285,0.2311,0.2339,0.2375,0.2376,0.2421,0.2426,0.247,0.2486,0.2559,0.2533,0.2549,0.2644,0.2687,0.2703,0.2718,0.273,0.2744,0.2574,0.2574,0.2575,0,0.213,0.2167,0.2192,0.2222,0.2253,0.2283,0.2317,0.2352,0.2387,0.2423,0.2398,0.246,0.2475,0.2573,0.2607,0.2593,0.2589,0.26,0.2706,0.272,0.2732,0.274,0.2755,0.2581,0.258,0.258,0.2579,0,0.2152,0.2186,0.2202,0.2257,0.2293,0.2327,0.2381,0.2428,0.2458,0.2487,0.2565,0.259,0.2632,0.2657,0.2661,0.2774,0.2732,0.2704,0.268,0.276,0.2762,0.2775,0.2591,0.2589,0.2587,0.2585,0,0,0.2133,0.2205,0.221,0.2243,0.2318,0.2345,0.2432,0.2516,0.2581,0.2616,0.2694,0.2767,0.278,0.28,0.2827,0.289,0.2995,0.2851,0.285,0.2877,0.3068,0.2987,0.2992,0.2985,0.2988,0.299,0.3035,0,0.2146,0.2203,0.2249,0.231,0.2343,0.2414,0.2492,0.2573,0.2639,0.2716,0.2781,0.2846,0.2837,0.2881,0.2944,0.2981,0.3032,0.2983,0.2972,0.2971,0.2903,0.3006,0.2794,0.2812,0.3047,0.3049,0.305,0,0.2153,0.2196,0.2257,0.2349,0.2373,0.2428,0.2566,0.264,0.2768,0.2816,0.29,0.2929,0.3058,0.3012,0.3125,0.309,0.3091,0.3104,0.3105,0.299,0.2914,0.2767,0.2825,0.307,0.3069,0.3067,0.3066,0,0.2123,0.2202,0.2258,0.2283,0.2393,0.2458,0.2537,0.2671,0.2747,0.2893,0.2939,0.3059,0.3113,0.3163,0.3199,0.3171,0.3281,0.3236,0.3155,0.3148,0.2945,0.2915,0.3293,0.3293,0.3293,0.3293,0.3293,0,0.2124,0.216,0.2247,0.2274,0.2357,0.2445,0.2557,0.266,0.2795,0.2873,0.2987,0.3059,0.3152,0.3216,0.3235,0.3243,0.3308,0.3193,0.3171,0.2983,0.2958,0.3153,0.3136,0.3295,0.3294,0.3294,0.3294,0,0.2081,0.2138,0.2197,0.2308,0.2344,0.2408,0.255,0.2622,0.2766,0.2872,0.292,0.3075,0.3167,0.3231,0.3313,0.3273,0.3305,0.3275,0.3039,0.2989,0.3127,0.3116,0.3201,0.3199,0.3198,0.3196,0.3195,0,0.2065,0.209,0.2195,0.2234,0.229,0.2384,0.2446,0.2595,0.2667,0.2867,0.2905,0.3044,0.3098,0.32,0.3206,0.3225,0.3267,0.2997,0.2913,0.3156,0.3127,0.3119,0.3111,0.2694,0.2688,0.2684,0.2681,0,0.2033,0.2075,0.2123,0.2188,0.2252,0.2316,0.2417,0.2456,0.2619,0.2701,0.2818,0.2889,0.3004,0.2948,0.2983,0.2962,0.2988,0.2907,0.3249,0.2749,0.2681,0.265,0.2659,0.2642,0.2646,0.2649,0.2651,0.2653,0.2009,0.2025,0.2082,0.2134,0.2189,0.2228,0.2245,0.2331,0.2397,0.2482,0.2624,0.2651,0.2719,0.2675,0.2622,0.26,0.2787,0.2655,0.2667,0.2684,0.2617,0.255,0.2472,0.2475,0.2477,0.2479,0.2481,0,0.1966,0.1983,0.2026,0.2068,0.2075,0.2147,0.2198,0.2177,0.2183,0.2289,0.2343,0.2187,0.218,0.2261,0.2183,0.219,0.2158,0.2089,0.2031,0.2073,0.211,0.201,0.1706,0.1703,0.17,0.1698,0,0,0.1949,0.1954,0.1962,0.1941,0.1965,0.1934,0.1941,0.1914,0.1958,0.1905,0.1911,0.2068,0.2201,0.1909,0.1896,0.1791,0.1909,0.1724,0.2358,0.2334,0.2366,0.2462,0.2361,0,0,0,0,0]},{"header":{"parameterUnit":"m.s-1","parameterCategory":2,"la1":30.2991,"la2":30.254,"lo1":-89.0895,"lo2":-89.0444,"dy":0.0017,"dx":0.0017,"nx":28,"ny":28,"refTime":"2024-04-15T21:00:00:Z","depth":"2","parameterNumber":3,"parameterNumberName":"V-component_of_CURRENTS"},"data":[0,0,0,0,0,0,0,0,0,0,0,0,0,0,0,0,0,0,0,0,0,0,0,0,0,0,0,0,0,0,0,0,0,0,0,0,0,0,0,0,0,0,0,0,0,0,0,0,0,0,0,0,0,0,0,0,0,0,-0.0102,-0.0102,0,-0.0152,-0.0153,-0.0153,-0.019,-0.019,-0.0191,-0.0191,-0.0268,-0.027,-0.0272,0,0,0,0,0,0,0,0,0,0,0,0,0,-0.0068,-0.0068,-0.0102,-0.0102,-0.0103,-0.0152,-0.0153,-0.0154,-0.019,-0.019,-0.0191,-0.0191,-0.0267,-0.027,-0.0272,0,0,0,0,0,0,0,0,0,0,0,0,0,-0.0097,-0.0068,-0.0102,-0.0126,-0.0129,-0.0152,-0.0153,-0.0154,-0.019,-0.019,-0.0191,-0.0191,-0.0267,-0.0269,-0.0272,-0.0282,0,0,-0.0281,-0.0282,0,0,0,0,0,0,0,0,-0.0096,-0.0099,-0.0122,-0.0125,-0.0128,-0.0165,-0.0169,-0.0198,-0.019,-0.0168,-0.0191,-0.0191,-0.0235,-0.0241,-0.025,-0.0285,-0.0289,-0.0281,-0.0282,-0.0284,-0.0284,0,0,0,0,0,0,0,-0.0093,-0.0097,-0.0123,-0.0123,-0.0126,-0.0145,-0.015,-0.0175,-0.02,-0.017,-0.0172,-0.0177,-0.0237,-0.0247,-0.0252,-0.029,-0.0281,-0.0283,-0.0285,-0.0286,-0.0347,-0.0347,0,0,0,0,0,0,-0.0084,-0.0095,-0.0121,-0.0124,-0.0111,-0.0146,-0.0151,-0.0153,-0.0199,-0.0206,-0.0176,-0.0178,-0.0242,-0.0249,-0.0255,-0.0278,-0.0284,-0.0286,-0.0288,-0.0347,-0.0347,-0.0347,0,0,0,0,0,0,-0.0083,-0.0085,-0.0119,-0.011,-0.0116,-0.0145,-0.0148,-0.0154,-0.0161,-0.0204,-0.0211,-0.0177,-0.0243,-0.0251,-0.0275,-0.0281,-0.0287,-0.029,-0.0347,-0.0347,-0.0347,-0.0319,0,0,0,0,0,0,-0.0081,-0.0085,-0.0081,-0.0109,-0.0116,-0.0125,-0.0148,-0.0155,-0.0163,-0.0166,-0.0207,-0.0215,-0.0244,-0.0271,-0.0278,-0.0285,-0.0292,-0.0347,-0.0347,-0.0347,-0.032,-0.0318,-0.0316,0,0,0,0,0,-0.008,-0.0069,-0.008,-0.0083,-0.011,-0.0125,-0.013,-0.0153,-0.0163,-0.0162,-0.0192,-0.0214,-0.0276,-0.0273,-0.0281,-0.0289,-0.0347,-0.0347,-0.0347,-0.0321,-0.0318,-0.0316,0,0,0,0,0,0,-0.005,-0.0073,-0.0085,-0.0082,-0.01,-0.0131,-0.013,-0.0147,-0.017,-0.0171,-0.0213,-0.0223,-0.0247,-0.0268,-0.0264,-0.0306,-0.0315,-0.0317,-0.0292,-0.029,-0.0288,-0.0258,-0.0294,0,0,0,0,0,-0.0041,-0.0041,-0.0068,-0.0065,-0.0071,-0.0099,-0.0107,-0.0122,-0.0147,-0.0157,-0.0189,-0.0221,-0.0253,-0.027,-0.0298,-0.0319,-0.0328,-0.0329,-0.0327,-0.0326,-0.0306,-0.0336,-0.0335,-0.0347,-0.0347,-0.0347,0,0,-0.003,-0.0041,-0.0042,-0.0058,-0.0073,-0.0077,-0.0105,-0.011,-0.012,-0.0162,-0.0182,-0.0214,-0.0256,-0.0283,-0.0296,-0.0302,-0.0326,-0.0326,-0.0324,-0.0305,-0.0336,-0.0335,-0.0334,-0.0347,-0.0347,-0.0347,0,0,-0.0003,-0.0015,-0.0006,-0.0018,-0.0034,-0.0053,-0.0052,-0.008,-0.0099,-0.012,-0.0158,-0.0186,-0.0232,-0.0266,-0.0289,-0.029,-0.0314,-0.0305,-0.0275,-0.0305,-0.0304,-0.0303,-0.0307,-0.0307,-0.0306,-0.0306,-0.0306,0,0.0012,0.0019,-0.0005,-0.0,-0.0004,-0.0039,-0.003,-0.0057,-0.0091,-0.01,-0.012,-0.0182,-0.0223,-0.0256,-0.0263,-0.0286,-0.0297,-0.0282,-0.0302,-0.0301,-0.0301,-0.0305,-0.0305,-0.0305,-0.0305,-0.0305,-0.0305,0,0.0042,0.0047,0.0054,0.0046,0.0037,0.0041,0.0005,-0.0007,-0.0033,-0.0058,-0.009,-0.0146,-0.0174,-0.0207,-0.0238,-0.026,-0.0266,-0.0295,-0.0305,-0.0298,-0.0303,-0.0303,-0.0303,-0.0304,-0.0304,-0.0304,0,0,0.0079,0.0076,0.0079,0.0087,0.0064,0.0065,0.0049,0.003,0.0037,-0.0017,-0.0012,-0.0092,-0.0109,-0.0135,-0.0185,-0.0222,-0.024,-0.0253,-0.0256,-0.0251,-0.0285,-0.0313,-0.0317,-0.0278,-0.0278,-0.0278,-0.0287,0,0.0112,0.0138,0.0122,0.0145,0.0156,0.0123,0.0117,0.0094,0.0069,0.0065,-0.0003,-0.0017,-0.0089,-0.0092,-0.0144,-0.0205,-0.0241,-0.0233,-0.0296,-0.0297,-0.032,-0.0319,-0.0282,-0.0289,-0.0287,-0.0287,-0.0288,0,0.0148,0.0162,0.0193,0.0204,0.0208,0.0216,0.0219,0.021,0.0182,0.0167,0.0136,0.0093,0.0044,-0.0019,-0.0123,-0.0113,-0.0189,-0.025,-0.0253,-0.0285,-0.0327,-0.0298,-0.029,-0.0289,-0.0289,-0.0289,-0.0289,0,0.0195,0.0213,0.0244,0.0246,0.025,0.0265,0.0268,0.025,0.0267,0.0248,0.0275,0.019,0.0182,0.0065,-0.0062,-0.0087,-0.0172,-0.0223,-0.0321,-0.0323,-0.0304,-0.0304,-0.0298,-0.0298,-0.0298,-0.0298,-0.0298,0,0.0237,0.0263,0.0276,0.0296,0.0347,0.0326,0.0381,0.0368,0.0384,0.0434,0.0347,0.0375,0.0201,0.0128,-0.0012,-0.0153,-0.0133,-0.0302,-0.0329,-0.0293,-0.0293,-0.0306,-0.0307,-0.0298,-0.0298,-0.0298,-0.0298,0,0.0283,0.0287,0.0334,0.0359,0.0375,0.0415,0.0472,0.0511,0.0515,0.0585,0.0593,0.0529,0.043,0.025,0.0077,-0.0068,-0.0215,-0.0277,-0.021,-0.0232,-0.0356,-0.0355,-0.0378,-0.0379,-0.038,-0.0381,-0.0382,0,0.0306,0.0337,0.0394,0.0437,0.0457,0.0517,0.0563,0.0578,0.0635,0.0688,0.0736,0.0665,0.0619,0.0355,0.0092,-0.0152,-0.0203,-0.0284,-0.0346,-0.0341,-0.0366,-0.0363,-0.0361,-0.0301,-0.03,-0.03,-0.03,0,0.036,0.0386,0.0427,0.0514,0.0576,0.0655,0.0729,0.0793,0.0833,0.0888,0.0949,0.0918,0.0677,0.0428,0.0082,-0.0083,-0.0248,-0.0293,-0.0294,-0.0297,-0.0272,-0.0295,-0.0295,-0.03,-0.03,-0.03,-0.03,-0.03,0.0408,0.0449,0.051,0.059,0.0673,0.078,0.0851,0.0937,0.1031,0.1104,0.1082,0.1041,0.0769,0.0322,0.0042,-0.0245,-0.0252,-0.0362,-0.036,-0.0358,-0.0359,-0.0339,-0.0377,-0.0377,-0.0378,-0.0378,-0.0378,0,0.0458,0.0503,0.0582,0.068,0.078,0.0814,0.095,0.101,0.1124,0.1191,0.1209,0.0953,0.068,0.0383,-0.0043,-0.0317,-0.033,-0.0395,-0.0351,-0.0349,-0.0348,-0.0348,-0.0363,-0.0364,-0.0364,-0.0365,0,0,0.0488,0.0561,0.0592,0.0749,0.0829,0.0947,0.1029,0.1119,0.1192,0.1222,0.121,0.1127,0.0785,0.0472,0.0114,-0.0118,-0.0171,-0.0162,-0.0145,-0.0047,-0.0043,-0.0298,-0.0293,0,0,0,0,0]}],[{"header":{"parameterUnit":"m.s-1","parameterCategory":2,"la1":30.2991,"la2":30.254,"lo1":-89.0895,"lo2":-89.0444,"dy":0.0017,"dx":0.0017,"nx":28,"ny":28,"refTime":"2024-04-15T21:00:00:Z","depth":"4","parameterNumber":2,"parameterNumberName":"U-component_of_CURRENTS"},"data":[0,0,0,0,0,0,0,0,0,0,0,0,0,0,0,0,0,0,0,0,0,0,0,0,0,0,0,0,0,0,0,0,0,0,0,0,0,0,0,0,0,0,0,0,0,0,0,0,0,0,0,0,0,0,0,0,0,0,0.1192,0.1192,0,0.1243,0.1244,0.1244,0.1307,0.1308,0.1309,0.131,0.1378,0.1378,0.1379,0,0,0,0,0,0,0,0,0,0,0,0,0,0.1142,0.1142,0.1192,0.1192,0.1193,0.1243,0.1244,0.1244,0.1307,0.1308,0.1309,0.131,0.1377,0.1378,0.1379,0,0,0,0,0,0,0,0,0,0,0,0,0,0.1176,0.1143,0.1192,0.123,0.1234,0.1243,0.1244,0.1245,0.1307,0.1308,0.1309,0.1311,0.1377,0.1378,0.138,0.136,0,0,0.1384,0.1384,0,0,0,0,0,0,0,0,0.1174,0.1178,0.1223,0.1227,0.1231,0.127,0.1251,0.1284,0.1306,0.1279,0.131,0.1311,0.1342,0.1346,0.1353,0.1363,0.1366,0.1384,0.1385,0.1385,0.1386,0,0,0,0,0,0,0,0.1171,0.1176,0.1213,0.1224,0.1229,0.1242,0.1249,0.1257,0.1303,0.1282,0.1286,0.1291,0.1344,0.1351,0.1355,0.1367,0.1384,0.1385,0.1386,0.1387,0.1451,0.1451,0,0,0,0,0,0,0.1163,0.1173,0.1211,0.1214,0.1205,0.1242,0.1249,0.1256,0.1302,0.1311,0.129,0.1294,0.1348,0.1353,0.1358,0.1406,0.1385,0.1387,0.1388,0.145,0.1451,0.1452,0,0,0,0,0,0,0.1161,0.1166,0.1209,0.1194,0.1201,0.1241,0.1249,0.1257,0.1297,0.1308,0.1317,0.1325,0.135,0.1356,0.1386,0.1407,0.1387,0.1389,0.1449,0.145,0.1451,0.1459,0,0,0,0,0,0,0.116,0.1165,0.1178,0.1194,0.1201,0.1234,0.1248,0.1257,0.1295,0.1302,0.134,0.1347,0.1351,0.1384,0.1387,0.1408,0.139,0.1448,0.1449,0.1451,0.1457,0.146,0.1462,0,0,0,0,0,0.1158,0.1164,0.1179,0.1184,0.1215,0.1234,0.124,0.1273,0.1295,0.1315,0.1338,0.1347,0.1397,0.1385,0.1389,0.1411,0.1447,0.1449,0.1451,0.1456,0.146,0.1462,0,0,0,0,0,0,0.1154,0.1171,0.1188,0.1202,0.1227,0.1246,0.1268,0.1288,0.1322,0.1337,0.1351,0.1358,0.1397,0.14,0.1387,0.1436,0.1426,0.1429,0.1429,0.1432,0.1435,0.1454,0.1391,0,0,0,0,0,0.1157,0.1168,0.1189,0.1206,0.122,0.125,0.1268,0.129,0.1314,0.1333,0.1355,0.138,0.1401,0.1415,0.1434,0.1452,0.1484,0.1472,0.1475,0.1477,0.1496,0.1554,0.1564,0.1458,0.1458,0.1458,0,0,0.1162,0.1172,0.1182,0.1206,0.1231,0.125,0.1266,0.13,0.1312,0.1332,0.1366,0.1394,0.141,0.1436,0.1453,0.1444,0.1523,0.1479,0.148,0.1499,0.1557,0.1568,0.1577,0.1459,0.1459,0.1459,0,0,0.1167,0.1189,0.1201,0.1221,0.1256,0.1269,0.1285,0.1318,0.1335,0.1364,0.1383,0.1419,0.1452,0.1462,0.1471,0.1497,0.1538,0.1516,0.154,0.1595,0.1605,0.1613,0.1664,0.1677,0.1512,0.1512,0.1512,0,0.1173,0.119,0.121,0.1227,0.1242,0.128,0.1297,0.1312,0.135,0.1375,0.1382,0.1459,0.146,0.1497,0.1506,0.1502,0.1553,0.1522,0.1599,0.1609,0.1617,0.1667,0.1681,0.1513,0.1513,0.1513,0.1513,0,0.1185,0.1206,0.1218,0.1247,0.1265,0.1289,0.1307,0.1333,0.1363,0.1399,0.146,0.147,0.1533,0.1524,0.1522,0.1587,0.161,0.1599,0.1591,0.1629,0.1678,0.1693,0.1514,0.1513,0.1513,0.1513,0,0,0.117,0.1215,0.1222,0.124,0.1278,0.1292,0.131,0.1349,0.1397,0.1436,0.1502,0.152,0.1582,0.1596,0.1604,0.163,0.1713,0.1651,0.1654,0.1701,0.1862,0.1728,0.1732,0.1735,0.1738,0.174,0.187,0,0.1177,0.1204,0.1223,0.1254,0.127,0.13,0.132,0.1365,0.1419,0.1495,0.1527,0.1614,0.1593,0.1652,0.1674,0.1718,0.1757,0.1681,0.182,0.1824,0.17,0.1745,0.1749,0.1881,0.1885,0.1887,0.1889,0,0.1173,0.1193,0.1219,0.126,0.1273,0.1306,0.1366,0.14,0.1503,0.1552,0.1651,0.1718,0.1789,0.1761,0.186,0.1829,0.1862,0.187,0.1876,0.1762,0.1717,0.1838,0.1916,0.1914,0.1912,0.191,0.1909,0,0.1137,0.1184,0.1202,0.1217,0.1273,0.1302,0.1355,0.1445,0.1489,0.1643,0.1718,0.1822,0.19,0.1952,0.1986,0.1961,0.2081,0.2043,0.1949,0.1941,0.202,0.2009,0.2122,0.2122,0.2122,0.2121,0.2121,0,0.1109,0.113,0.1203,0.1216,0.1261,0.1319,0.1399,0.1462,0.1582,0.1662,0.1788,0.1851,0.1961,0.2037,0.2046,0.2046,0.2145,0.1972,0.1968,0.2018,0.2006,0.203,0.2018,0.2126,0.2125,0.2124,0.2123,0,0.1055,0.1099,0.1126,0.1207,0.1244,0.129,0.1414,0.147,0.1608,0.1715,0.178,0.1922,0.2023,0.2095,0.2184,0.2115,0.2128,0.2103,0.2173,0.2168,0.1939,0.1926,0.2021,0.2017,0.2014,0.2011,0.2009,0,0.1025,0.1034,0.1119,0.1148,0.1195,0.1284,0.1336,0.1468,0.1531,0.1722,0.1756,0.1927,0.2003,0.2032,0.21,0.214,0.21,0.2107,0.1994,0.1944,0.1932,0.1923,0.1914,0.2004,0.2004,0.2003,0.2002,0,0.0964,0.1002,0.1032,0.1101,0.1158,0.1208,0.1313,0.1347,0.1499,0.1625,0.1717,0.1791,0.1894,0.1955,0.2015,0.2018,0.2098,0.2075,0.208,0.1973,0.1925,0.1914,0.1909,0.1991,0.1993,0.1994,0.1995,0,0.0928,0.0932,0.0985,0.1033,0.1102,0.1133,0.1188,0.1268,0.1344,0.1554,0.1573,0.1736,0.1871,0.1892,0.1929,0.1946,0.1904,0.183,0.1846,0.1859,0.174,0.165,0.1645,0,0,0,0,0,0.0886,0.0887,0.092,0.0965,0.1031,0.1071,0.1166,0.1222,0.1365,0.1391,0.1486,0.1573,0.1658,0.1731,0.1717,0.1842,0.1902,0.1814,0.1822,0.1933,0.1945,0.1816,0,0,0,0,0,0,0.085,0.0886,0.0888,0.0903,0.0931,0.0986,0.1038,0.1125,0.115,0.1307,0.1362,0.1479,0.1582,0.1664,0.1692,0.1713,0.1685,0.1909,0.1905,0.1926,0.1937,0.1947,0.1818,0,0,0,0,0]},{"header":{"parameterUnit":"m.s-1","parameterCategory":2,"la1":30.2991,"la2":30.254,"lo1":-89.0895,"lo2":-89.0444,"dy":0.0017,"dx":0.0017,"nx":28,"ny":28,"refTime":"2024-04-15T21:00:00:Z","depth":"4","parameterNumber":3,"parameterNumberName":"V-component_of_CURRENTS"},"data":[0,0,0,0,0,0,0,0,0,0,0,0,0,0,0,0,0,0,0,0,0,0,0,0,0,0,0,0,0,0,0,0,0,0,0,0,0,0,0,0,0,0,0,0,0,0,0,0,0,0,0,0,0,0,0,0,0,0,-0.0039,-0.0039,0,-0.0075,-0.0075,-0.0076,-0.0111,-0.0111,-0.0112,-0.0112,-0.0175,-0.0176,-0.0177,0,0,0,0,0,0,0,0,0,0,0,0,0,-0.0023,-0.0023,-0.0039,-0.004,-0.004,-0.0075,-0.0075,-0.0076,-0.0111,-0.0111,-0.0112,-0.0112,-0.0174,-0.0176,-0.0178,0,0,0,0,0,0,0,0,0,0,0,0,0,-0.0042,-0.0023,-0.0039,-0.0061,-0.0063,-0.0075,-0.0075,-0.0076,-0.0111,-0.0111,-0.0112,-0.0112,-0.0174,-0.0176,-0.0178,-0.0178,0,0,-0.0184,-0.0185,0,0,0,0,0,0,0,0,-0.0041,-0.0043,-0.0057,-0.0059,-0.0062,-0.0088,-0.0093,-0.0111,-0.0111,-0.0094,-0.0112,-0.0113,-0.0147,-0.0152,-0.0158,-0.0181,-0.0184,-0.0184,-0.0185,-0.0186,-0.0187,0,0,0,0,0,0,0,-0.004,-0.0042,-0.0054,-0.0058,-0.006,-0.0076,-0.008,-0.0097,-0.0118,-0.0095,-0.0097,-0.01,-0.0149,-0.0156,-0.016,-0.0185,-0.0184,-0.0186,-0.0187,-0.0188,-0.0222,-0.0221,0,0,0,0,0,0,-0.0032,-0.004,-0.0053,-0.0055,-0.0052,-0.0076,-0.008,-0.008,-0.0117,-0.0123,-0.0099,-0.0101,-0.0152,-0.0157,-0.0162,-0.0154,-0.0186,-0.0188,-0.0189,-0.0222,-0.0222,-0.0221,0,0,0,0,0,0,-0.0031,-0.0033,-0.0052,-0.0048,-0.0052,-0.0075,-0.0076,-0.008,-0.0089,-0.012,-0.0127,-0.0103,-0.0153,-0.0159,-0.0177,-0.0157,-0.0189,-0.0191,-0.0222,-0.0222,-0.0221,-0.0144,0,0,0,0,0,0,-0.0031,-0.0032,-0.0029,-0.0047,-0.0051,-0.0055,-0.0075,-0.0081,-0.0089,-0.0092,-0.0126,-0.0132,-0.0154,-0.0174,-0.0179,-0.016,-0.0192,-0.0223,-0.0222,-0.0222,-0.0147,-0.0141,-0.0136,0,0,0,0,0,-0.003,-0.002,-0.0029,-0.003,-0.0047,-0.0054,-0.0058,-0.0078,-0.0089,-0.0089,-0.0113,-0.0131,-0.0174,-0.0175,-0.0181,-0.0162,-0.0223,-0.0222,-0.0222,-0.0149,-0.0142,-0.0136,0,0,0,0,0,0,-0.001,-0.0023,-0.0033,-0.0027,-0.004,-0.006,-0.006,-0.0074,-0.0092,-0.0095,-0.0128,-0.0136,-0.0145,-0.0168,-0.0168,-0.0173,-0.0201,-0.0202,-0.0144,-0.0138,-0.0132,-0.0113,-0.0194,0,0,0,0,0,-0.0004,-0.0001,-0.0018,-0.0013,-0.0017,-0.0038,-0.0044,-0.0056,-0.0075,-0.0083,-0.0108,-0.0132,-0.0146,-0.0153,-0.0176,-0.0175,-0.021,-0.0169,-0.0163,-0.0158,-0.0148,-0.0179,-0.0175,-0.0219,-0.0219,-0.0219,0,0,0.0004,-0.0001,-0.0001,-0.0009,-0.002,-0.0014,-0.0043,-0.0046,-0.0038,-0.0087,-0.0087,-0.0117,-0.0145,-0.0146,-0.0152,-0.0161,-0.0168,-0.0158,-0.0153,-0.0145,-0.0178,-0.0173,-0.0169,-0.0219,-0.0219,-0.0219,0,0,0.0027,0.0019,0.0028,0.0023,0.0013,0.0005,0.0006,-0.0014,-0.002,-0.0025,-0.0056,-0.007,-0.0099,-0.0107,-0.0116,-0.0094,-0.0143,-0.0107,-0.0055,-0.0085,-0.0081,-0.0078,-0.013,-0.0132,-0.0098,-0.0098,-0.0098,0,0.0037,0.0049,0.003,0.004,0.0046,0.0017,0.0035,0.0028,0.0005,0.0006,-0.0017,-0.005,-0.0074,-0.0064,-0.0056,-0.0077,-0.0117,-0.0074,-0.0076,-0.0074,-0.0072,-0.0126,-0.013,-0.0094,-0.0094,-0.0095,-0.0095,0,0.0064,0.0076,0.0084,0.0091,0.0094,0.0104,0.0096,0.0098,0.0085,0.0071,0.0066,0.0031,0.0012,0.0005,-0.0017,-0.0011,-0.0052,-0.0069,-0.0087,-0.0062,-0.0122,-0.0127,-0.0088,-0.009,-0.0091,-0.0092,0,0,0.0082,0.01,0.0104,0.0123,0.0125,0.0134,0.0156,0.0166,0.0181,0.0153,0.0166,0.0145,0.0111,0.0099,0.0068,0.0052,0.0026,0.0002,-0.0002,-0.0041,-0.0064,-0.0077,-0.0085,0.0004,0.0004,0.0004,-0.0116,0,0.0111,0.0148,0.015,0.0194,0.0215,0.0211,0.0239,0.0244,0.023,0.023,0.0202,0.0191,0.0152,0.0141,0.0119,0.0046,0.0018,0.0058,-0.009,-0.0095,-0.0102,-0.0088,0.0004,-0.012,-0.0121,-0.0122,-0.0122,0,0.0137,0.0163,0.0209,0.0259,0.0269,0.0293,0.0331,0.035,0.0343,0.0332,0.0311,0.0264,0.0238,0.0199,0.0096,0.0118,0.0036,-0.0021,-0.0028,-0.0066,-0.0116,-0.0149,-0.0132,-0.0131,-0.0131,-0.013,-0.0129,0,0.0164,0.0209,0.0253,0.0265,0.031,0.0341,0.0369,0.038,0.0401,0.0387,0.038,0.033,0.0296,0.0207,0.0079,0.008,-0.0047,-0.0064,-0.0154,-0.0158,-0.0145,-0.0147,-0.0134,-0.0134,-0.0134,-0.0133,-0.0133,0,0.0196,0.0232,0.0271,0.0297,0.0362,0.038,0.044,0.0454,0.0469,0.0487,0.043,0.0412,0.0295,0.02,0.0091,-0.0051,-0.0047,-0.0143,-0.0181,-0.0114,-0.0111,-0.015,-0.0151,-0.0138,-0.0137,-0.0136,-0.0135,0,0.0215,0.0237,0.0293,0.0352,0.0376,0.0422,0.0492,0.0524,0.0532,0.0549,0.0544,0.0462,0.0336,0.0205,0.0044,-0.0042,-0.0169,-0.0223,-0.0155,-0.0189,-0.0268,-0.0263,-0.0332,-0.0333,-0.0334,-0.0335,-0.0336,0,0.023,0.0259,0.0331,0.0366,0.0396,0.0465,0.0513,0.0555,0.0579,0.0571,0.0572,0.0463,0.0388,0.0154,0.0013,-0.0195,-0.0221,-0.0293,-0.0258,-0.0254,-0.0284,-0.0277,-0.0271,-0.0337,-0.0338,-0.0338,-0.0338,0,0.0257,0.0277,0.0319,0.0389,0.0445,0.0513,0.0577,0.0603,0.0638,0.0643,0.0591,0.0472,0.0325,0.0148,-0.0016,-0.0163,-0.0241,-0.0305,-0.0303,-0.0271,-0.0262,-0.0289,-0.0282,-0.0342,-0.0341,-0.0341,-0.0341,0,0.0269,0.0294,0.034,0.0403,0.0474,0.0532,0.0575,0.0605,0.0637,0.0633,0.0607,0.0464,0.0384,0.0161,0.001,-0.0132,-0.0167,-0.0203,-0.0208,-0.0205,-0.0125,-0.0092,-0.0148,0,0,0,0,0,0.0273,0.0293,0.035,0.0414,0.0485,0.0523,0.0601,0.0633,0.0666,0.0639,0.0632,0.05,0.0279,0.0177,0.0032,-0.0027,-0.0205,-0.0203,-0.0252,-0.0362,-0.0358,-0.0285,0,0,0,0,0,0,0.0268,0.0312,0.0337,0.0408,0.045,0.0524,0.0573,0.0599,0.059,0.0604,0.0489,0.0455,0.0237,0.0356,0.0022,-0.0022,-0.0073,-0.03,-0.0303,-0.0365,-0.0361,-0.0357,-0.0281,0,0,0,0,0]}]]